EN

Hourly Weather Tarana

Today, 28 November, Saturday

Time Temperature Precipitation Wind Pressure Humidity
00:00 +16°C° 0 mm 3 mps 721 mmHg 47%
01:00 +14°C° 0 mm 3 mps 720 mmHg 49%
02:00 +14°C° 0 mm 3 mps 720 mmHg 51%
03:00 +13°C° 0 mm 3 mps 720 mmHg 52%
04:00 +14°C° 0 mm 2 mps 720 mmHg 53%
05:00 +13°C° 0 mm 3 mps 720 mmHg 57%
06:00 +14°C° 0 mm 3 mps 721 mmHg 54%
07:00 +16°C° 0 mm 3 mps 722 mmHg 52%
08:00 +18°C° 0 mm 3 mps 722 mmHg 49%
09:00 +20°C° 0 mm 3 mps 722 mmHg 42%
10:00 +24°C° 0 mm 3 mps 722 mmHg 36%
11:00 +27°C° 0 mm 4 mps 722 mmHg 29%
12:00 +27°C° 0 mm 3 mps 721 mmHg 27%
13:00 +28°C° 0 mm 3 mps 720 mmHg 25%
14:00 +29°C° 0 mm 3 mps 720 mmHg 23%
15:00 +27°C° 0 mm 3 mps 719 mmHg 25%
16:00 +26°C° 0 mm 3 mps 719 mmHg 28%
17:00 +24°C° 0 mm 3 mps 719 mmHg 31%
18:00 +22°C° 0 mm 3 mps 719 mmHg 32%
19:00 +20°C° 0 mm 3 mps 719 mmHg 34%
20:00 +19°C° 0 mm 3 mps 719 mmHg 36%
21:00 +18°C° 0 mm 3 mps 719 mmHg 37%
22:00 +17°C° 0 mm 3 mps 719 mmHg 39%
23:00 +17°C° 0 mm 3 mps 719 mmHg 40%

Tomorrow, 29 November, Sunday

Time Temperature Precipitation Wind Pressure Humidity
00:00 +16°C° 0 mm 2 mps 719 mmHg 42%
01:00 +16°C° 0 mm 2 mps 719 mmHg 43%
02:00 +15°C° 0 mm 2 mps 718 mmHg 44%
03:00 +15°C° 0 mm 2 mps 718 mmHg 45%
04:00 +15°C° 0 mm 2 mps 719 mmHg 46%
05:00 +15°C° 0 mm 2 mps 719 mmHg 47%
06:00 +16°C° 0 mm 2 mps 719 mmHg 45%
07:00 +18°C° 0 mm 2 mps 720 mmHg 43%
08:00 +19°C° 0 mm 2 mps 721 mmHg 41%
09:00 +23°C° 0 mm 2 mps 721 mmHg 38%
10:00 +25°C° 0 mm 2 mps 721 mmHg 35%
11:00 +28°C° 0 mm 2 mps 721 mmHg 32%
12:00 +29°C° 0 mm 2 mps 720 mmHg 32%
13:00 +30°C° 0 mm 1 mps 719 mmHg 32%
14:00 +31°C° 0 mm 1 mps 719 mmHg 31%
15:00 +29°C° 0 mm 1 mps 718 mmHg 33%
16:00 +28°C° 0 mm 2 mps 718 mmHg 35%
17:00 +27°C° 0 mm 2 mps 718 mmHg 37%
18:00 +25°C° 0 mm 2 mps 718 mmHg 38%
19:00 +24°C° 0 mm 2 mps 719 mmHg 39%
20:00 +22°C° 0 mm 3 mps 719 mmHg 40%
21:00 +21°C° 0 mm 3 mps 719 mmHg 39%
22:00 +20°C° 0 mm 2 mps 719 mmHg 38%
23:00 +19°C° 0 mm 2 mps 719 mmHg 36%

Day after tomorrow, 30 November, Monday

Time Temperature Precipitation Wind Pressure Humidity
00:00 +19°C° 0 mm 2 mps 718 mmHg 37%
01:00 +18°C° 0 mm 2 mps 718 mmHg 37%
02:00 +18°C° 0 mm 2 mps 718 mmHg 37%
03:00 +18°C° 0 mm 2 mps 718 mmHg 39%
04:00 +17°C° 0 mm 2 mps 718 mmHg 40%
05:00 +17°C° 0 mm 2 mps 718 mmHg 42%
06:00 +18°C° 0 mm 2 mps 718 mmHg 40%
07:00 +20°C° 0 mm 2 mps 719 mmHg 39%
08:00 +21°C° 0 mm 2 mps 720 mmHg 37%
09:00 +24°C° 0 mm 2 mps 720 mmHg 34%
10:00 +27°C° 0 mm 2 mps 720 mmHg 31%
11:00 +29°C° 0 mm 2 mps 720 mmHg 28%
12:00 +30°C° 0 mm 2 mps 719 mmHg 26%
13:00 +31°C° 0 mm 2 mps 719 mmHg 24%
14:00 +32°C° 0 mm 2 mps 718 mmHg 22%
15:00 +30°C° 0 mm 2 mps 718 mmHg 23%
16:00 +29°C° 0 mm 2 mps 718 mmHg 24%
17:00 +27°C° 0 mm 2 mps 718 mmHg 25%
18:00 +26°C° 0 mm 2 mps 718 mmHg 26%
19:00 +24°C° 0 mm 2 mps 719 mmHg 26%
20:00 +23°C° 0 mm 2 mps 719 mmHg 27%
21:00 +21°C° 0 mm 2 mps 719 mmHg 28%
22:00 +20°C° 0 mm 2 mps 719 mmHg 28%
23:00 +19°C° 0 mm 2 mps 719 mmHg 29%

1 December, Tuesday

Time Temperature Precipitation Wind Pressure Humidity
00:00 +19°C° 0 mm 2 mps 719 mmHg 31%
01:00 +18°C° 0 mm 2 mps 718 mmHg 33%
02:00 +19°C° 0 mm 1 mps 718 mmHg 34%
03:00 +18°C° 0 mm 1 mps 718 mmHg 35%
04:00 +18°C° 0 mm 1 mps 718 mmHg 36%
05:00 +17°C° 0 mm 2 mps 718 mmHg 37%
06:00 +18°C° 0 mm 2 mps 719 mmHg 36%
07:00 +19°C° 0 mm 2 mps 719 mmHg 34%
08:00 +20°C° 0 mm 2 mps 720 mmHg 33%
09:00 +24°C° 0 mm 2 mps 720 mmHg 28%
10:00 +27°C° 0 mm 2 mps 720 mmHg 24%
11:00 +29°C° 0 mm 3 mps 720 mmHg 20%
12:00 +30°C° 0 mm 3 mps 719 mmHg 18%
13:00 +31°C° 0 mm 3 mps 719 mmHg 15%
14:00 +33°C° 0 mm 3 mps 718 mmHg 13%
15:00 +30°C° 0 mm 3 mps 718 mmHg 15%
16:00 +28°C° 0 mm 2 mps 718 mmHg 17%
17:00 +26°C° 0 mm 2 mps 718 mmHg 19%
18:00 +25°C° 0 mm 2 mps 718 mmHg 21%
19:00 +23°C° 0 mm 2 mps 718 mmHg 22%
20:00 +21°C° 0 mm 2 mps 719 mmHg 23%
21:00 +21°C° 0 mm 1 mps 719 mmHg 25%
22:00 +20°C° 0 mm 1 mps 719 mmHg 27%
23:00 +20°C° 0 mm 1 mps 719 mmHg 28%

2 December, Wednesday

Time Temperature Precipitation Wind Pressure Humidity
00:00 +19°C° 0 mm 1 mps 718 mmHg 29%
01:00 +19°C° 0 mm 1 mps 718 mmHg 30%
02:00 +18°C° 0 mm 1 mps 718 mmHg 31%
03:00 +18°C° 0 mm 1 mps 718 mmHg 32%
04:00 +18°C° 0 mm 1 mps 718 mmHg 33%
05:00 +16°C° 0 mm 1 mps 718 mmHg 34%
06:00 +19°C° 0 mm 1 mps 718 mmHg 32%
07:00 +20°C° 0 mm 1 mps 719 mmHg 31%
08:00 +22°C° 0 mm 1 mps 720 mmHg 30%
09:00 +24°C° 0 mm 1 mps 720 mmHg 26%
10:00 +27°C° 0 mm 1 mps 720 mmHg 22%
11:00 +30°C° 0 mm 1 mps 720 mmHg 18%
12:00 +31°C° 0 mm 2 mps 719 mmHg 17%
13:00 +31°C° 0 mm 2 mps 718 mmHg 16%
14:00 +32°C° 0 mm 2 mps 718 mmHg 14%
15:00 +30°C° 0 mm 2 mps 717 mmHg 17%
16:00 +29°C° 0 mm 2 mps 717 mmHg 19%
17:00 +27°C° 0 mm 2 mps 716 mmHg 22%
18:00 +25°C° 0 mm 2 mps 717 mmHg 23%
19:00 +24°C° 0 mm 2 mps 717 mmHg 25%
20:00 +21°C° 0 mm 2 mps 717 mmHg 27%
21:00 +21°C° 0 mm 2 mps 717 mmHg 28%
22:00 +20°C° 0 mm 2 mps 717 mmHg 29%
23:00 +20°C° 0 mm 1 mps 717 mmHg 30%

3 December, Thursday

Time Temperature Precipitation Wind Pressure Humidity
00:00 +20°C° 0 mm 1 mps 717 mmHg 32%
01:00 +19°C° 0 mm 1 mps 716 mmHg 33%
02:00 +17°C° 0 mm 0 mps 716 mmHg 34%
03:00 +16°C° 0 mm 0 mps 716 mmHg 35%
04:00 +16°C° 0 mm 0 mps 716 mmHg 36%
05:00 +16°C° 0 mm 0 mps 716 mmHg 36%
06:00 +20°C° 0 mm 1 mps 717 mmHg 35%
07:00 +21°C° 0 mm 1 mps 718 mmHg 33%
08:00 +23°C° 0 mm 1 mps 718 mmHg 31%
09:00 +26°C° 0 mm 1 mps 719 mmHg 27%
10:00 +28°C° 0 mm 1 mps 719 mmHg 23%
11:00 +31°C° 0 mm 1 mps 719 mmHg 19%
12:00 +32°C° 0 mm 1 mps 718 mmHg 17%
13:00 +33°C° 0 mm 1 mps 718 mmHg 16%
14:00 +33°C° 0 mm 1 mps 717 mmHg 15%
15:00 +31°C° 0 mm 1 mps 717 mmHg 17%
16:00 +29°C° 0 mm 1 mps 717 mmHg 19%
17:00 +27°C° 0 mm 1 mps 716 mmHg 21%
18:00 +26°C° 0 mm 1 mps 717 mmHg 23%
19:00 +24°C° 0 mm 1 mps 717 mmHg 26%
20:00 +23°C° 0 mm 1 mps 717 mmHg 28%
21:00 +22°C° 0 mm 1 mps 717 mmHg 29%
22:00 +21°C° 0 mm 1 mps 717 mmHg 31%
23:00 +21°C° 0 mm 1 mps 717 mmHg 33%
Show more